Вернуться в каталог

SL-8 R/B

АктивенPO
NORAD 23774·ROCKET BODY·🇷🇺 Russia

Запущен Jan 16, 1996 с Plesetsk Cosmodrome

Loading…

Ближайшие Пролёты (ближайшие 24 часа)

TLE

СвежийSource: Space-Track

Эпоха: Sep 14, 2026, 07:55 UTC

1 23774U 96004B   26257.33044989  .00000097  00000-0  83397-4 0  9994
2 23774  82.9810  26.2832 0042398 256.6632 102.9796 13.76866103540051

Отслеживайте SL-8 R/B в реальном времени с AllMySat

Download on the App Store